Year,Month,Day,Hour,Minute,Value (Times are PST for temperature in C)
2017,08,02,00,00,22.70
2017,08,02,00,01,22.60
2017,08,02,00,02,22.60
2017,08,02,00,03,22.50
2017,08,02,00,04,22.50
2017,08,02,00,05,22.40
2017,08,02,00,06,22.40
2017,08,02,00,07,22.40
2017,08,02,00,08,22.40
2017,08,02,00,09,22.30
2017,08,02,00,10,22.30
2017,08,02,00,11,22.30
2017,08,02,00,12,22.30
2017,08,02,00,13,22.20
2017,08,02,00,14,22.20
2017,08,02,00,15,22.20
2017,08,02,00,16,22.10
2017,08,02,00,17,22.10
2017,08,02,00,18,22.10
2017,08,02,00,19,22.00
2017,08,02,00,20,22.00
2017,08,02,00,21,22.00
2017,08,02,00,22,22.00
2017,08,02,00,23,22.10
2017,08,02,00,24,22.10
2017,08,02,00,25,22.10
2017,08,02,00,26,22.10
2017,08,02,00,27,22.10
2017,08,02,00,28,22.10
2017,08,02,00,29,22.10
2017,08,02,00,30,22.00
2017,08,02,00,31,22.00
2017,08,02,00,32,22.00
2017,08,02,00,33,22.00
2017,08,02,00,34,22.00
2017,08,02,00,35,22.00
2017,08,02,00,36,22.00
2017,08,02,00,37,22.00
2017,08,02,00,38,22.00
2017,08,02,00,39,22.00
2017,08,02,00,40,22.00
2017,08,02,00,41,21.90
2017,08,02,00,42,21.90
2017,08,02,00,43,21.90
2017,08,02,00,44,21.90
2017,08,02,00,45,21.90
2017,08,02,00,46,21.90
2017,08,02,00,47,21.90
2017,08,02,00,48,21.90
2017,08,02,00,49,21.90
2017,08,02,00,50,21.80
2017,08,02,00,51,21.80
2017,08,02,00,52,21.80
2017,08,02,00,53,21.80
2017,08,02,00,54,21.80
2017,08,02,00,55,21.80
2017,08,02,00,56,21.80
2017,08,02,00,57,21.80
2017,08,02,00,58,21.80
2017,08,02,00,59,21.80
2017,08,02,01,00,21.80
2017,08,02,01,01,21.80
2017,08,02,01,02,21.80
2017,08,02,01,03,21.80
2017,08,02,01,04,21.80
2017,08,02,01,05,21.70
2017,08,02,01,06,21.70
2017,08,02,01,07,21.70
2017,08,02,01,08,21.70
2017,08,02,01,09,21.70
2017,08,02,01,10,21.70
2017,08,02,01,11,21.60
2017,08,02,01,12,21.60
2017,08,02,01,13,21.60
2017,08,02,01,14,21.50
2017,08,02,01,15,21.50
2017,08,02,01,16,21.50
2017,08,02,01,17,21.40
2017,08,02,01,18,21.40
2017,08,02,01,19,21.40
2017,08,02,01,20,21.30
2017,08,02,01,21,21.30
2017,08,02,01,22,21.30
2017,08,02,01,23,21.20
2017,08,02,01,24,21.20
2017,08,02,01,25,21.20
2017,08,02,01,26,21.20
2017,08,02,01,27,21.10
2017,08,02,01,28,21.10
2017,08,02,01,29,21.00
2017,08,02,01,30,21.00
2017,08,02,01,31,20.90
2017,08,02,01,32,20.90
2017,08,02,01,33,20.90
2017,08,02,01,34,20.80
2017,08,02,01,35,20.70
2017,08,02,01,36,20.60
2017,08,02,01,37,20.60
2017,08,02,01,38,20.50
2017,08,02,01,39,20.40
2017,08,02,01,40,20.30
2017,08,02,01,41,20.20
2017,08,02,01,42,20.20
2017,08,02,01,43,20.10
2017,08,02,01,44,20.00
2017,08,02,01,45,20.00
2017,08,02,01,46,19.90
2017,08,02,01,47,19.90
2017,08,02,01,48,19.80
2017,08,02,01,49,19.70
2017,08,02,01,50,19.60
2017,08,02,01,51,19.60
2017,08,02,01,52,19.50
2017,08,02,01,53,19.40
2017,08,02,01,54,19.40
2017,08,02,01,55,19.40
2017,08,02,01,56,19.30
2017,08,02,01,57,19.30
2017,08,02,01,58,19.30
2017,08,02,01,59,19.30
2017,08,02,02,00,19.20
2017,08,02,02,01,19.20
2017,08,02,02,02,19.20
2017,08,02,02,03,19.20
2017,08,02,02,04,19.10
2017,08,02,02,05,19.10
2017,08,02,02,06,19.10
2017,08,02,02,07,19.00
2017,08,02,02,08,19.00
2017,08,02,02,09,19.00
2017,08,02,02,10,18.90
2017,08,02,02,11,18.90
2017,08,02,02,12,18.90
2017,08,02,02,13,18.90
2017,08,02,02,14,18.90
2017,08,02,02,15,18.90
2017,08,02,02,16,18.90
2017,08,02,02,17,18.90
2017,08,02,02,18,18.90
2017,08,02,02,19,18.90
2017,08,02,02,20,18.90
2017,08,02,02,21,18.90
2017,08,02,02,22,18.90
2017,08,02,02,23,18.80
2017,08,02,02,24,18.80
2017,08,02,02,25,18.80
2017,08,02,02,26,18.80
2017,08,02,02,27,18.80
2017,08,02,02,28,18.80
2017,08,02,02,29,18.70
2017,08,02,02,30,18.70
2017,08,02,02,31,18.70
2017,08,02,02,32,18.70
2017,08,02,02,33,18.70
2017,08,02,02,34,18.70
2017,08,02,02,35,18.60
2017,08,02,02,36,18.60
2017,08,02,02,37,18.60
2017,08,02,02,38,18.60
2017,08,02,02,39,18.60
2017,08,02,02,40,18.60
2017,08,02,02,41,18.50
2017,08,02,02,42,18.50
2017,08,02,02,43,18.50
2017,08,02,02,44,18.40
2017,08,02,02,45,18.40
2017,08,02,02,46,18.40
2017,08,02,02,47,18.30
2017,08,02,02,48,18.30
2017,08,02,02,49,18.30
2017,08,02,02,50,18.30
2017,08,02,02,51,18.30
2017,08,02,02,52,18.30
2017,08,02,02,53,18.30
2017,08,02,02,54,18.30
2017,08,02,02,55,18.30
2017,08,02,02,56,18.30
2017,08,02,02,57,18.30
2017,08,02,02,58,18.30
2017,08,02,02,59,18.30
2017,08,02,03,00,18.30
2017,08,02,03,01,18.30
2017,08,02,03,02,18.30
2017,08,02,03,03,18.30
2017,08,02,03,04,18.30
2017,08,02,03,05,18.30
2017,08,02,03,06,18.30
2017,08,02,03,07,18.30
2017,08,02,03,08,18.20
2017,08,02,03,09,18.20
2017,08,02,03,10,18.20
2017,08,02,03,11,18.20
2017,08,02,03,12,18.20
2017,08,02,03,13,18.20
2017,08,02,03,14,18.20
2017,08,02,03,15,18.20
2017,08,02,03,16,18.20
2017,08,02,03,17,18.20
2017,08,02,03,18,18.20
2017,08,02,03,19,18.10
2017,08,02,03,20,18.10
2017,08,02,03,21,18.10
2017,08,02,03,22,18.10
2017,08,02,03,23,18.10
2017,08,02,03,24,18.10
2017,08,02,03,25,18.10
2017,08,02,03,26,18.00
2017,08,02,03,27,18.00
2017,08,02,03,28,18.00
2017,08,02,03,29,18.00
2017,08,02,03,30,18.00
2017,08,02,03,31,18.00
2017,08,02,03,32,18.00
2017,08,02,03,33,17.90
2017,08,02,03,34,17.90
2017,08,02,03,35,17.90
2017,08,02,03,36,17.80
2017,08,02,03,37,17.80
2017,08,02,03,38,17.80
2017,08,02,03,39,17.70
2017,08,02,03,40,17.70
2017,08,02,03,41,17.70
2017,08,02,03,42,17.70
2017,08,02,03,43,17.70
2017,08,02,03,44,17.60
2017,08,02,03,45,17.60
2017,08,02,03,46,17.60
2017,08,02,03,47,17.60
2017,08,02,03,48,17.50
2017,08,02,03,49,17.50
2017,08,02,03,50,17.50
2017,08,02,03,51,17.50
2017,08,02,03,52,17.50
2017,08,02,03,53,17.50
2017,08,02,03,54,17.50
2017,08,02,03,55,17.50
2017,08,02,03,56,17.50
2017,08,02,03,57,17.50
2017,08,02,03,58,17.50
2017,08,02,03,59,17.50
2017,08,02,04,00,17.50
2017,08,02,04,01,17.50
2017,08,02,04,02,17.50
2017,08,02,04,03,17.50
2017,08,02,04,04,17.50
2017,08,02,04,05,17.40
2017,08,02,04,06,17.40
2017,08,02,04,07,17.40
2017,08,02,04,08,17.40
2017,08,02,04,09,17.40
2017,08,02,04,10,17.40
2017,08,02,04,11,17.30
2017,08,02,04,12,17.30
2017,08,02,04,13,17.30
2017,08,02,04,14,17.30
2017,08,02,04,15,17.30
2017,08,02,04,16,17.30
2017,08,02,04,17,17.20
2017,08,02,04,18,17.20
2017,08,02,04,19,17.20
2017,08,02,04,20,17.10
2017,08,02,04,21,17.10
2017,08,02,04,22,17.10
2017,08,02,04,23,17.10
2017,08,02,04,24,17.00
2017,08,02,04,25,17.00
2017,08,02,04,26,16.90
2017,08,02,04,27,16.90
2017,08,02,04,28,16.90
2017,08,02,04,29,16.90
2017,08,02,04,30,16.90
2017,08,02,04,31,16.90
2017,08,02,04,32,16.90
2017,08,02,04,33,16.80
2017,08,02,04,34,16.80
2017,08,02,04,35,16.80
2017,08,02,04,36,16.80
2017,08,02,04,37,16.80
2017,08,02,04,38,16.80
2017,08,02,04,39,16.80
2017,08,02,04,40,16.80
2017,08,02,04,41,16.80
2017,08,02,04,42,16.80
2017,08,02,04,43,16.80
2017,08,02,04,44,16.90
2017,08,02,04,45,16.90
2017,08,02,04,46,16.90
2017,08,02,04,47,16.90
2017,08,02,04,48,16.90
2017,08,02,04,49,16.90
2017,08,02,04,50,16.90
2017,08,02,04,51,16.90
2017,08,02,04,52,16.90
2017,08,02,04,53,16.90
2017,08,02,04,54,16.80
2017,08,02,04,55,16.80
2017,08,02,04,56,16.80
2017,08,02,04,57,16.80
2017,08,02,04,58,16.80
2017,08,02,04,59,16.90
2017,08,02,05,00,16.90
2017,08,02,05,01,16.90
2017,08,02,05,02,16.90
2017,08,02,05,03,16.90
2017,08,02,05,04,16.90
2017,08,02,05,05,16.90
2017,08,02,05,06,16.90
2017,08,02,05,07,16.90
2017,08,02,05,08,17.00
2017,08,02,05,09,17.00
2017,08,02,05,10,17.00
2017,08,02,05,11,17.00
2017,08,02,05,12,17.00
2017,08,02,05,13,17.00
2017,08,02,05,14,17.00
2017,08,02,05,15,17.10
2017,08,02,05,16,17.00
2017,08,02,05,17,17.00
2017,08,02,05,18,17.00
2017,08,02,05,19,17.00
2017,08,02,05,20,17.00
2017,08,02,05,21,17.00
2017,08,02,05,22,17.00
2017,08,02,05,23,17.00
2017,08,02,05,24,17.00
2017,08,02,05,25,16.90
2017,08,02,05,26,16.90
2017,08,02,05,27,16.90
2017,08,02,05,28,16.90
2017,08,02,05,29,16.90
2017,08,02,05,30,16.90
2017,08,02,05,31,16.90
2017,08,02,05,32,16.90
2017,08,02,05,33,16.90
2017,08,02,05,34,16.90
2017,08,02,05,35,16.90
2017,08,02,05,36,16.90
2017,08,02,05,37,16.90
2017,08,02,05,38,16.90
2017,08,02,05,39,16.90
2017,08,02,05,40,16.90
2017,08,02,05,41,16.80
2017,08,02,05,42,16.80
2017,08,02,05,43,16.80
2017,08,02,05,44,16.80
2017,08,02,05,45,16.80
2017,08,02,05,46,16.80
2017,08,02,05,47,16.80
2017,08,02,05,48,16.80
2017,08,02,05,49,16.80
2017,08,02,05,50,16.70
2017,08,02,05,51,16.70
2017,08,02,05,52,16.70
2017,08,02,05,53,16.70
2017,08,02,05,54,16.70
2017,08,02,05,55,16.60
2017,08,02,05,56,16.60
2017,08,02,05,57,16.60
2017,08,02,05,58,16.50
2017,08,02,05,59,16.50
2017,08,02,06,00,16.50
2017,08,02,06,01,16.40
2017,08,02,06,02,16.40
2017,08,02,06,03,16.40
2017,08,02,06,04,16.40
2017,08,02,06,05,16.40
2017,08,02,06,06,16.40
2017,08,02,06,07,16.30
2017,08,02,06,08,16.30
2017,08,02,06,09,16.30
2017,08,02,06,10,16.30
2017,08,02,06,11,16.30
2017,08,02,06,12,16.30
2017,08,02,06,13,16.30
2017,08,02,06,14,16.30
2017,08,02,06,15,16.30
2017,08,02,06,16,16.30
2017,08,02,06,17,16.30
2017,08,02,06,18,16.30
2017,08,02,06,19,16.30
2017,08,02,06,20,16.30
2017,08,02,06,21,16.30
2017,08,02,06,22,16.40
2017,08,02,06,23,16.40
2017,08,02,06,24,16.40
2017,08,02,06,25,16.40
2017,08,02,06,26,16.40
2017,08,02,06,27,16.40
2017,08,02,06,28,16.40
2017,08,02,06,29,16.40
2017,08,02,06,30,16.40
2017,08,02,06,31,16.40
2017,08,02,06,32,16.40
2017,08,02,06,33,16.40
2017,08,02,06,34,16.40
2017,08,02,06,35,16.40
2017,08,02,06,36,16.40
2017,08,02,06,37,16.40
2017,08,02,06,38,16.40
2017,08,02,06,39,16.40
2017,08,02,06,40,16.40
2017,08,02,06,41,16.40
2017,08,02,06,42,16.30
2017,08,02,06,43,16.30
2017,08,02,06,44,16.40
2017,08,02,06,45,16.40
2017,08,02,06,46,16.40
2017,08,02,06,47,16.40
2017,08,02,06,48,16.40
2017,08,02,06,49,16.40
2017,08,02,06,50,16.50
2017,08,02,06,51,16.50
2017,08,02,06,52,16.50
2017,08,02,06,53,16.60
2017,08,02,06,54,16.60
2017,08,02,06,55,16.60
2017,08,02,06,56,16.60
2017,08,02,06,57,16.70
2017,08,02,06,58,16.70
2017,08,02,06,59,16.70
2017,08,02,07,00,16.70
2017,08,02,07,01,16.70
2017,08,02,07,02,16.70
2017,08,02,07,03,16.70
2017,08,02,07,04,16.70
2017,08,02,07,05,16.70
2017,08,02,07,06,16.70
2017,08,02,07,07,16.70
2017,08,02,07,08,16.70
2017,08,02,07,09,16.70
2017,08,02,07,10,16.70
2017,08,02,07,11,16.70
2017,08,02,07,12,16.70
2017,08,02,07,13,16.70
2017,08,02,07,14,16.70
2017,08,02,07,15,16.60
2017,08,02,07,16,16.60
2017,08,02,07,17,16.60
2017,08,02,07,18,16.60
2017,08,02,07,19,16.70
2017,08,02,07,20,16.70
2017,08,02,07,21,16.70
2017,08,02,07,22,16.70
2017,08,02,07,23,16.80
2017,08,02,07,24,16.80
2017,08,02,07,25,16.90
2017,08,02,07,26,17.00
2017,08,02,07,27,17.00
2017,08,02,07,28,17.10
2017,08,02,07,29,17.20
2017,08,02,07,30,17.30
2017,08,02,07,31,17.30
2017,08,02,07,32,17.40
2017,08,02,07,33,17.50
2017,08,02,07,34,17.50
2017,08,02,07,35,17.60
2017,08,02,07,36,17.70
2017,08,02,07,37,17.70
2017,08,02,07,38,17.80
2017,08,02,07,39,17.90
2017,08,02,07,40,18.00
2017,08,02,07,41,18.10
2017,08,02,07,42,18.10
2017,08,02,07,43,18.20
2017,08,02,07,44,18.30
2017,08,02,07,45,18.30
2017,08,02,07,46,18.40
2017,08,02,07,47,18.50
2017,08,02,07,48,18.50
2017,08,02,07,49,18.60
2017,08,02,07,50,18.60
2017,08,02,07,51,18.70
2017,08,02,07,52,18.80
2017,08,02,07,53,18.80
2017,08,02,07,54,18.90
2017,08,02,07,55,18.90
2017,08,02,07,56,18.90
2017,08,02,07,57,19.00
2017,08,02,07,58,19.00
2017,08,02,07,59,19.10
2017,08,02,08,00,19.10
2017,08,02,08,01,19.00
2017,08,02,08,02,19.00
2017,08,02,08,03,19.00
2017,08,02,08,04,19.10
2017,08,02,08,05,19.10
2017,08,02,08,06,19.10
2017,08,02,08,07,19.20
2017,08,02,08,08,19.20
2017,08,02,08,09,19.30
2017,08,02,08,10,19.30
2017,08,02,08,11,19.30
2017,08,02,08,12,19.30
2017,08,02,08,13,19.30
2017,08,02,08,14,19.40
2017,08,02,08,15,19.40
2017,08,02,08,16,19.40
2017,08,02,08,17,19.50
2017,08,02,08,18,19.50
2017,08,02,08,19,19.60
2017,08,02,08,20,19.60
2017,08,02,08,21,19.60
2017,08,02,08,22,19.60
2017,08,02,08,23,19.60
2017,08,02,08,24,19.60
2017,08,02,08,25,19.70
2017,08,02,08,26,19.70
2017,08,02,08,27,19.80
2017,08,02,08,28,19.90
2017,08,02,08,29,20.00
2017,08,02,08,30,20.10
2017,08,02,08,31,20.10
2017,08,02,08,32,20.20
2017,08,02,08,33,20.20
2017,08,02,08,34,20.20
2017,08,02,08,35,20.30
2017,08,02,08,36,20.30
2017,08,02,08,37,20.30
2017,08,02,08,38,20.30
2017,08,02,08,39,20.40
2017,08,02,08,40,20.40
2017,08,02,08,41,20.30
2017,08,02,08,42,20.30
2017,08,02,08,43,20.30
2017,08,02,08,44,20.40
2017,08,02,08,45,20.40
2017,08,02,08,46,20.40
2017,08,02,08,47,20.40
2017,08,02,08,48,20.40
2017,08,02,08,49,20.50
2017,08,02,08,50,20.60
2017,08,02,08,51,20.70
2017,08,02,08,52,20.70
2017,08,02,08,53,20.80
2017,08,02,08,54,20.80
2017,08,02,08,55,20.90
2017,08,02,08,56,20.90
2017,08,02,08,57,20.90
2017,08,02,08,58,21.00
2017,08,02,08,59,21.00
2017,08,02,09,00,21.00
2017,08,02,09,01,21.00
2017,08,02,09,02,21.00
2017,08,02,09,03,21.10
2017,08,02,09,04,21.10
2017,08,02,09,05,21.10
2017,08,02,09,06,21.10
2017,08,02,09,07,21.00
2017,08,02,09,08,20.90
2017,08,02,09,09,20.90
2017,08,02,09,10,21.00
2017,08,02,09,11,21.00
2017,08,02,09,12,21.00
2017,08,02,09,13,21.10
2017,08,02,09,14,21.10
2017,08,02,09,15,21.10
2017,08,02,09,16,21.10
2017,08,02,09,17,21.10
2017,08,02,09,18,21.20
2017,08,02,09,19,21.20
2017,08,02,09,20,21.20
2017,08,02,09,21,21.20
2017,08,02,09,22,21.30
2017,08,02,09,23,21.40
2017,08,02,09,24,21.40
2017,08,02,09,25,21.50
2017,08,02,09,26,21.60
2017,08,02,09,27,21.70
2017,08,02,09,28,21.70
2017,08,02,09,29,21.80
2017,08,02,09,30,21.80
2017,08,02,09,31,21.80
2017,08,02,09,32,21.80
2017,08,02,09,33,21.80
2017,08,02,09,34,21.80
2017,08,02,09,35,21.90
2017,08,02,09,36,22.00
2017,08,02,09,37,22.10
2017,08,02,09,38,22.20
2017,08,02,09,39,22.30
2017,08,02,09,40,22.40
2017,08,02,09,41,22.50
2017,08,02,09,42,22.50
2017,08,02,09,43,22.50
2017,08,02,09,44,22.60
2017,08,02,09,45,22.70
2017,08,02,09,46,22.70
2017,08,02,09,47,22.60
2017,08,02,09,48,22.60
2017,08,02,09,49,22.50
2017,08,02,09,50,22.50
2017,08,02,09,51,22.50
2017,08,02,09,52,22.40
2017,08,02,09,53,22.50
2017,08,02,09,54,22.50
2017,08,02,09,55,22.60
2017,08,02,09,56,22.70
2017,08,02,09,57,22.70
2017,08,02,09,58,22.70
2017,08,02,09,59,22.70
2017,08,02,10,00,22.60
2017,08,02,10,01,22.60
2017,08,02,10,02,22.50
2017,08,02,10,03,22.60
2017,08,02,10,04,22.60
2017,08,02,10,05,22.70
2017,08,02,10,06,22.80
2017,08,02,10,07,22.90
2017,08,02,10,08,23.10
2017,08,02,10,09,23.10
2017,08,02,10,10,23.20
2017,08,02,10,11,23.30
2017,08,02,10,12,23.40
2017,08,02,10,13,23.50
2017,08,02,10,14,23.50
2017,08,02,10,15,23.60
2017,08,02,10,16,23.70
2017,08,02,10,17,23.80
2017,08,02,10,18,23.90
2017,08,02,10,19,24.00
2017,08,02,10,20,24.10
2017,08,02,10,21,24.20
2017,08,02,10,22,24.20
2017,08,02,10,23,24.30
2017,08,02,10,24,24.30
2017,08,02,10,25,24.40
2017,08,02,10,26,24.40
2017,08,02,10,27,24.40
2017,08,02,10,28,24.40
2017,08,02,10,29,24.50
2017,08,02,10,30,24.60
2017,08,02,10,31,24.60
2017,08,02,10,32,24.70
2017,08,02,10,33,24.70
2017,08,02,10,34,24.80
2017,08,02,10,35,24.80
2017,08,02,10,36,24.90
2017,08,02,10,37,24.90
2017,08,02,10,38,25.00
2017,08,02,10,39,25.00
2017,08,02,10,40,25.00
2017,08,02,10,41,25.10
2017,08,02,10,42,25.00
2017,08,02,10,43,25.00
2017,08,02,10,44,24.80
2017,08,02,10,45,24.70
2017,08,02,10,46,24.50
2017,08,02,10,47,24.30
2017,08,02,10,48,24.20
2017,08,02,10,49,24.20
2017,08,02,10,50,24.10
2017,08,02,10,51,24.10
2017,08,02,10,52,24.10
2017,08,02,10,53,24.10
2017,08,02,10,54,24.10
2017,08,02,10,55,24.20
2017,08,02,10,56,24.20
2017,08,02,10,57,24.20
2017,08,02,10,58,24.20
2017,08,02,10,59,24.30
2017,08,02,11,00,24.30
2017,08,02,11,01,24.30
2017,08,02,11,02,24.30
2017,08,02,11,03,24.30
2017,08,02,11,04,24.40
2017,08,02,11,05,24.40
2017,08,02,11,06,24.40
2017,08,02,11,07,24.50
2017,08,02,11,08,24.60
2017,08,02,11,09,24.60
2017,08,02,11,10,24.70
2017,08,02,11,11,24.70
2017,08,02,11,12,24.70
2017,08,02,11,13,24.70
2017,08,02,11,14,24.80
2017,08,02,11,15,24.80
2017,08,02,11,16,24.80
2017,08,02,11,17,24.80
2017,08,02,11,18,24.90
2017,08,02,11,19,24.90
2017,08,02,11,20,25.00
2017,08,02,11,21,25.10
2017,08,02,11,22,25.20
2017,08,02,11,23,25.20
2017,08,02,11,24,25.20
2017,08,02,11,25,25.20
2017,08,02,11,26,25.30
2017,08,02,11,27,25.30
2017,08,02,11,28,25.40
2017,08,02,11,29,25.50
2017,08,02,11,30,25.60
2017,08,02,11,31,25.60
2017,08,02,11,32,25.70
2017,08,02,11,33,25.80
2017,08,02,11,34,25.70
2017,08,02,11,35,25.70
2017,08,02,11,36,25.70
2017,08,02,11,37,25.70
2017,08,02,11,38,25.70
2017,08,02,11,39,25.60
2017,08,02,11,40,25.60
2017,08,02,11,41,25.60
2017,08,02,11,42,25.60
2017,08,02,11,43,25.60
2017,08,02,11,44,25.60
2017,08,02,11,45,25.70
2017,08,02,11,46,25.70
2017,08,02,11,47,25.80
2017,08,02,11,48,25.70
2017,08,02,11,49,25.70
2017,08,02,11,50,25.60
2017,08,02,11,51,25.60
2017,08,02,11,52,25.60
2017,08,02,11,53,25.50
2017,08,02,11,54,25.40
2017,08,02,11,55,25.40
2017,08,02,11,56,25.30
2017,08,02,11,57,25.30
2017,08,02,11,58,25.20
2017,08,02,11,59,25.20
2017,08,02,12,00,25.10
2017,08,02,12,01,25.10
2017,08,02,12,02,25.10
2017,08,02,12,03,25.10
2017,08,02,12,04,25.10
2017,08,02,12,05,25.20
2017,08,02,12,06,25.20
2017,08,02,12,07,25.20
2017,08,02,12,08,25.20
2017,08,02,12,09,25.20
2017,08,02,12,10,25.20
2017,08,02,12,11,25.30
2017,08,02,12,12,25.30
2017,08,02,12,13,25.40
2017,08,02,12,14,25.40
2017,08,02,12,15,25.40
2017,08,02,12,16,25.50
2017,08,02,12,17,25.50
2017,08,02,12,18,25.50
2017,08,02,12,19,25.60
2017,08,02,12,20,25.60
2017,08,02,12,21,25.60
2017,08,02,12,22,25.70
2017,08,02,12,23,25.70
2017,08,02,12,24,25.70
2017,08,02,12,25,25.80
2017,08,02,12,26,25.80
2017,08,02,12,27,25.80
2017,08,02,12,28,25.90
2017,08,02,12,29,26.00
2017,08,02,12,30,26.10
2017,08,02,12,31,26.30
2017,08,02,12,32,26.40
2017,08,02,12,33,26.60
2017,08,02,12,34,26.70
2017,08,02,12,35,26.80
2017,08,02,12,36,26.90
2017,08,02,12,37,27.00
2017,08,02,12,38,27.00
2017,08,02,12,39,27.10
2017,08,02,12,40,27.10
2017,08,02,12,41,27.20
2017,08,02,12,42,27.30
2017,08,02,12,43,27.30
2017,08,02,12,44,27.40
2017,08,02,12,45,27.40
2017,08,02,12,46,27.50
2017,08,02,12,47,27.50
2017,08,02,12,48,27.60
2017,08,02,12,49,27.50
2017,08,02,12,50,27.50
2017,08,02,12,51,27.60
2017,08,02,12,52,27.60
2017,08,02,12,53,27.60
2017,08,02,12,54,27.60
2017,08,02,12,55,27.60
2017,08,02,12,56,27.60
2017,08,02,12,57,27.60
2017,08,02,12,58,27.60
2017,08,02,12,59,27.60
2017,08,02,13,00,27.60
2017,08,02,13,01,27.60
2017,08,02,13,02,27.60
2017,08,02,13,03,27.60
2017,08,02,13,04,27.60
2017,08,02,13,05,27.60
2017,08,02,13,06,27.70
2017,08,02,13,07,27.70
2017,08,02,13,08,27.70
2017,08,02,13,09,27.70
2017,08,02,13,10,27.80
2017,08,02,13,11,27.80
2017,08,02,13,12,27.80
2017,08,02,13,13,27.80
2017,08,02,13,14,27.80
2017,08,02,13,15,27.80
2017,08,02,13,16,27.80
2017,08,02,13,17,27.80
2017,08,02,13,18,27.80
2017,08,02,13,19,27.90
2017,08,02,13,20,27.90
2017,08,02,13,21,28.00
2017,08,02,13,22,28.00
2017,08,02,13,23,28.00
2017,08,02,13,24,28.00
2017,08,02,13,25,27.90
2017,08,02,13,26,28.00
2017,08,02,13,27,28.00
2017,08,02,13,28,28.00
2017,08,02,13,29,28.10
2017,08,02,13,30,28.10
2017,08,02,13,31,28.10
2017,08,02,13,32,28.20
2017,08,02,13,33,28.20
2017,08,02,13,34,28.20
2017,08,02,13,35,28.30
2017,08,02,13,36,28.30
2017,08,02,13,37,28.30
2017,08,02,13,38,28.30
2017,08,02,13,39,28.30
2017,08,02,13,40,28.30
2017,08,02,13,41,28.20
2017,08,02,13,42,28.20
2017,08,02,13,43,28.30
2017,08,02,13,44,28.30
2017,08,02,13,45,28.30
2017,08,02,13,46,28.30
2017,08,02,13,47,28.30
2017,08,02,13,48,28.30
2017,08,02,13,49,28.30
2017,08,02,13,50,28.30
2017,08,02,13,51,28.30
2017,08,02,13,52,28.30
2017,08,02,13,53,28.30
2017,08,02,13,54,28.30
2017,08,02,13,55,28.30
2017,08,02,13,56,28.30
2017,08,02,13,57,28.30
2017,08,02,13,58,28.30
2017,08,02,13,59,28.30
2017,08,02,14,00,28.40
2017,08,02,14,01,28.40
2017,08,02,14,02,28.40
2017,08,02,14,03,28.40
2017,08,02,14,04,28.40
2017,08,02,14,05,28.30
2017,08,02,14,06,28.30
2017,08,02,14,07,28.30
2017,08,02,14,08,28.40
2017,08,02,14,09,28.40
2017,08,02,14,10,28.40
2017,08,02,14,11,28.40
2017,08,02,14,12,28.30
2017,08,02,14,13,28.30
2017,08,02,14,14,28.30
2017,08,02,14,15,28.20
2017,08,02,14,16,28.20
2017,08,02,14,17,28.20
2017,08,02,14,18,28.20
2017,08,02,14,19,28.20
2017,08,02,14,20,28.20
2017,08,02,14,21,28.30
2017,08,02,14,22,28.30
2017,08,02,14,23,28.30
2017,08,02,14,24,28.40
2017,08,02,14,25,28.50
2017,08,02,14,26,28.50
2017,08,02,14,27,28.50
2017,08,02,14,28,28.50
2017,08,02,14,29,28.50
2017,08,02,14,30,28.50
2017,08,02,14,31,28.50
2017,08,02,14,32,28.50
2017,08,02,14,33,28.50
2017,08,02,14,34,28.60
2017,08,02,14,35,28.60
2017,08,02,14,36,28.60
2017,08,02,14,37,28.60
2017,08,02,14,38,28.60
2017,08,02,14,39,28.60
2017,08,02,14,40,28.70
2017,08,02,14,41,28.70
2017,08,02,14,42,28.70
2017,08,02,14,43,28.80
2017,08,02,14,44,28.80
2017,08,02,14,45,28.70
2017,08,02,14,46,28.70
2017,08,02,14,47,28.70
2017,08,02,14,48,28.70
2017,08,02,14,49,28.80
2017,08,02,14,50,28.80
2017,08,02,14,51,28.80
2017,08,02,14,52,28.90
2017,08,02,14,53,28.90
2017,08,02,14,54,28.90
2017,08,02,14,55,29.00
2017,08,02,14,56,29.00
2017,08,02,14,57,29.10
2017,08,02,14,58,29.10
2017,08,02,14,59,29.10
2017,08,02,15,00,29.10
2017,08,02,15,01,29.10
2017,08,02,15,02,29.10
2017,08,02,15,03,29.10
2017,08,02,15,04,29.10
2017,08,02,15,05,29.20
2017,08,02,15,06,29.20
2017,08,02,15,07,29.20
2017,08,02,15,08,29.20
2017,08,02,15,09,29.30
2017,08,02,15,10,29.30
2017,08,02,15,11,29.30
2017,08,02,15,12,29.30
2017,08,02,15,13,29.40
2017,08,02,15,14,29.40
2017,08,02,15,15,29.50
2017,08,02,15,16,29.60
2017,08,02,15,17,29.60
2017,08,02,15,18,29.60
2017,08,02,15,19,29.60
2017,08,02,15,20,29.60
2017,08,02,15,21,29.60
2017,08,02,15,22,29.70
2017,08,02,15,23,29.80
2017,08,02,15,24,29.80
2017,08,02,15,25,29.80
2017,08,02,15,26,29.80
2017,08,02,15,27,29.80
2017,08,02,15,28,29.80
2017,08,02,15,29,29.80
2017,08,02,15,30,29.80
2017,08,02,15,31,29.90
2017,08,02,15,32,29.90
2017,08,02,15,33,30.00
2017,08,02,15,34,30.10
2017,08,02,15,35,30.10
2017,08,02,15,36,30.10
2017,08,02,15,37,30.10
2017,08,02,15,38,30.10
2017,08,02,15,39,30.10
2017,08,02,15,40,30.10
2017,08,02,15,41,30.10
2017,08,02,15,42,30.10
2017,08,02,15,43,30.20
2017,08,02,15,44,30.20
2017,08,02,15,45,30.20
2017,08,02,15,46,30.30
2017,08,02,15,47,30.30
2017,08,02,15,48,30.30
2017,08,02,15,49,30.30
2017,08,02,15,50,30.30
2017,08,02,15,51,30.30
2017,08,02,15,52,30.30
2017,08,02,15,53,30.30
2017,08,02,15,54,30.30
2017,08,02,15,55,30.30
2017,08,02,15,56,30.30
2017,08,02,15,57,30.30
2017,08,02,15,58,30.30
2017,08,02,15,59,30.20
2017,08,02,16,00,30.20
2017,08,02,16,01,30.10
2017,08,02,16,02,30.10
2017,08,02,16,03,30.10
2017,08,02,16,04,30.10
2017,08,02,16,05,30.10
2017,08,02,16,06,30.10
2017,08,02,16,07,30.20
2017,08,02,16,08,30.20
2017,08,02,16,09,30.20
2017,08,02,16,10,30.20
2017,08,02,16,11,30.30
2017,08,02,16,12,30.30
2017,08,02,16,13,30.40
2017,08,02,16,14,30.50
2017,08,02,16,15,30.50
2017,08,02,16,16,30.60
2017,08,02,16,17,30.60
2017,08,02,16,18,30.60
2017,08,02,16,19,30.60
2017,08,02,16,20,30.60
2017,08,02,16,21,30.60
2017,08,02,16,22,30.60
2017,08,02,16,23,30.50
2017,08,02,16,24,30.50
2017,08,02,16,25,30.40
2017,08,02,16,26,30.40
2017,08,02,16,27,30.40
2017,08,02,16,28,30.40
2017,08,02,16,29,30.40
2017,08,02,16,30,30.40
2017,08,02,16,31,30.40
2017,08,02,16,32,30.40
2017,08,02,16,33,30.40
2017,08,02,16,34,30.40
2017,08,02,16,35,30.40
2017,08,02,16,36,30.40
2017,08,02,16,37,30.40
2017,08,02,16,38,30.40
2017,08,02,16,39,30.40
2017,08,02,16,40,30.40
2017,08,02,16,41,30.40
2017,08,02,16,42,30.40
2017,08,02,16,43,30.50
2017,08,02,16,44,30.50
2017,08,02,16,45,30.50
2017,08,02,16,46,30.50
2017,08,02,16,47,30.50
2017,08,02,16,48,30.50
2017,08,02,16,49,30.50
2017,08,02,16,50,30.50
2017,08,02,16,51,30.50
2017,08,02,16,52,30.50
2017,08,02,16,53,30.40
2017,08,02,16,54,30.40
2017,08,02,16,55,30.40
2017,08,02,16,56,30.40
2017,08,02,16,57,30.40
2017,08,02,16,58,30.40
2017,08,02,16,59,30.30
2017,08,02,17,00,30.30
2017,08,02,17,01,30.30
2017,08,02,17,02,30.30
2017,08,02,17,03,30.30
2017,08,02,17,04,30.30
2017,08,02,17,05,30.30
2017,08,02,17,06,30.30
2017,08,02,17,07,30.20
2017,08,02,17,08,30.20
2017,08,02,17,09,30.20
2017,08,02,17,10,30.20
2017,08,02,17,11,30.20
2017,08,02,17,12,30.20
2017,08,02,17,13,30.20
2017,08,02,17,14,30.20
2017,08,02,17,15,30.20
2017,08,02,17,16,30.20
2017,08,02,17,17,30.20
2017,08,02,17,18,30.20
2017,08,02,17,19,30.20